sat.trackr.live / text

‹ back to catalog

STARLINK-31657

NORAD 59487 · 2024-071D

PAYLOAD ACTIVE UNKNOWN

§ Identity

Operator
Country
US
Launch date
2024-04-13
Launch site
AFETR
Launch vehicle
Mass (kg)
RCS (m²)

Purposes: comms

External: N2YO · Heavens-Above · Gunter

§ Orbital elements

Epoch: 2026-05-25T00:59:13.996608Z

Period
94.27 min
Inclination
43.0006°
Eccentricity
0.0001315
Mean motion
15.27582039 rev/d
Perigee alt
482.1 km
Apogee alt
483.9 km
Semi-major
6,861.2 km
B*
6.3689e-5
RAAN
268.4595°
Arg perigee
285.0685°
Mean anomaly
75.0021°
Rev number
11,988

§ Raw data

STARLINK-316571 59487U 24071D   26145.04113422  .00001491  00000+0  63689-4 0  99922 59487  43.0006 268.4595 0001315 285.0685  75.0021 15.27582039119885

JSON: /api/v1/satellites/59487 · /tle

For live sub-satellite position, see the globe view (requires WebGL).

§ Visibility from observer

Set your observer location to see the next 7 days of passes ≥ 10°. The values pass through the URL so the page stays shareable.

No JS? Fill the form by hand. The geolocation button needs JavaScript.